リニア彗星

C/1999 S4 ( LINEAR )

English version
Home page
Total 6,336 html files since Dec. 4, 1995
Updated on November 10, 2002

---------------------------------------------------------------------

・ プロフィール

発見日 1999年 9月27日
発見光度 17.3等
発見者 Lincoln Laboratory Near-Earth Asteroid Research project

・ 写真集

・ 軌道要素

   The following improved orbital elements by Kenji Muraoka, are
  from 776 observations 1999 Sept. 27 to 2000 June 1, perturbations
  by 9 Planets, Moon and 5 minor planets were taken into account.
   The mean residual is +/- 0.64 arc seconds.

      Epoch  =  2000 Aug.  4.0  TT       JDT = 2451760.5
          T  =  2000 July 26.16847       +/- 0.00071 (m.e.) TT
       Peri. =  151.06718                +/- 0.00017
       Node  =   83.19042                +/- 0.00022   (2000.0)
       Incl. =  149.38993                +/- 0.00009
          q  =    0.7650068              +/- 0.0000065 AU
          e  =    0.9999970              +/- 0.0000016
        1/a  =   +0.0000039              +/- 0.0000020 1/AU
  orig. 1/a  =   +0.0000029
  fut.  1/a  =   +0.0010393

・ 星図

・ 光度変化

        m1 =  8.3 + 5 logΔ +   8.0 log r  [   ,-55]  (              〜2000年 6月 1日)
        m1 =  7.6 + 5 logΔ +  15   log r  [-55,-35]  (2000年 6月 1日〜2000年 6月21日)
        m1 =  7.7 + 5 logΔ -  10   log r  [-35, -5]  (2000年 6月21日〜2000年 7月21日)
        m1 = 20.1 + 5 logΔ + 100   log r  [ -5,  0]  (2000年 7月21日〜2000年 7月26日)
        m1 = 46.3 + 5 logΔ + 325   log r  [  0, 13]  (2000年 7月26日〜2000年 8月 8日)
        m1 = 17   + 5 logΔ +  15   log r  [ 13,   ]  (2000年 8月 8日〜              )

        ※ 灰色の曲線は、m1 = 8.3 + 5 logΔ + 8.0 log r の光度曲線です。

---------------------------------------------------------------------

軌道要素は村岡健治氏の計算によるものです。
星図は StellaNavigator Ver.2.0 for Windows (アストロアーツ 編著 / アスキー出版局刊) で作成したものです。
光度グラフはComet for Windowsで作成したものです。

---------------------------------------------------------------------

Copyright(C) 1995-2008 Seiichi Yoshida (comet@aerith.net). All rights reserved.